Weather History for EHVK - March, 2013

Change the Weather History Date:

Wednesday, March 6, 2013

  Actual Average Record
Temperature  
Mean Temperature 50 °F -  
Max Temperature 64 °F 50 °F 64 °F (2013)
Min Temperature 37 °F 36 °F 28 °F (2001)
Degree Days  
Heating Degree Days 14    
Moisture  
Dew Point 35 °F    
Average Humidity 60    
Maximum Humidity 87    
Minimum Humidity 34    
Precipitation  
Precipitation 0.00 in - - ()
Sea Level Pressure  
Sea Level Pressure 29.61 in    
Wind  
Wind Speed 5 mph ()    
Max Wind Speed 12 mph    
Max Gust Speed -    
Visibility 6.2 miles    
Events      
Averages and records for this station are not official NWS values.
T = Trace of Precipitation, MM = Missing Value Source: Averaged Metar Reports

Daily Weather History Graph

Daily Weather History Graph

Search for Another Location

Airport or City:

Trip Planner

Search our weather history database for the weather conditions in past years. The results will help you decide how hot, cold, wet, or windy it might be!

Date:

Astronomy

Mar. 06, 2013 Rise Set
Actual Time 7:11 AM CET 6:26 PM CET
Civil Twilight 6:38 AM CET 6:59 PM CET
Nautical Twilight 5:59 AM CET 7:38 PM CET
Astronomical Twilight 5:20 AM CET 8:17 PM CET
Moon 3:37 AM CET (3/6) 12:20 PM CET (3/6)
Length of Visible Light 12h 21m
Length of Day
11h 14m
Waning Crescent, 33% of the Moon is Illuminated
Mar 6
Waning Crescent
Mar 11
New
Mar 19
First Quarter
Mar 27
Full
Apr 3
Last Quarter

Hourly Weather History & Observations

Time (CET) Temp. Windchill Dew Point Humidity Pressure Visibility Wind Dir Wind Speed Gust Speed Precip Events Conditions
12:25 AM 41.0 °F 37.1 °F 32.0 °F 70% 29.68 in 6.2 mi East 5.8 mph - N/A   Unknown
12:55 AM 44.6 °F 43.1 °F 32.0 °F 61% 29.68 in 6.2 mi East 3.5 mph - N/A   Unknown
1:25 AM 42.8 °F 41.1 °F 33.8 °F 70% 29.68 in 6.2 mi West 3.5 mph - N/A   Overcast
1:55 AM 39.2 °F - 33.8 °F 81% 29.68 in 6.2 mi East 1.2 mph - N/A   Partly Cloudy
2:25 AM 37.4 °F 34.9 °F 32.0 °F 81% 29.68 in 6.2 mi East 3.5 mph - N/A   Mostly Cloudy
2:55 AM 37.4 °F 34.9 °F 33.8 °F 87% 29.68 in 6.2 mi East 3.5 mph - N/A   Overcast
3:25 AM 39.2 °F 37.0 °F 33.8 °F 81% 29.65 in 6.2 mi East 3.5 mph - N/A   Overcast
3:55 AM 39.2 °F 37.0 °F 33.8 °F 81% 29.65 in 6.2 mi East 3.5 mph - N/A   Overcast
4:25 AM 41.0 °F 39.0 °F 33.8 °F 76% 29.65 in 6.2 mi East 3.5 mph - N/A   Overcast
4:55 AM 39.2 °F 37.0 °F 33.8 °F 81% 29.65 in 6.2 mi East 3.5 mph - N/A   Mostly Cloudy
5:25 AM 39.2 °F 37.0 °F 33.8 °F 81% 29.65 in 6.2 mi East 3.5 mph - N/A   Overcast
5:55 AM 41.0 °F 38.0 °F 35.6 °F 81% 29.65 in 6.2 mi East 4.6 mph - N/A   Overcast
6:25 AM 41.0 °F - 35.6 °F 81% 29.62 in 6.2 mi ENE 2.3 mph - N/A   Overcast
6:55 AM 41.0 °F 38.0 °F 35.6 °F 81% 29.62 in 6.2 mi East 4.6 mph - N/A   Overcast
7:25 AM 41.0 °F 38.0 °F 35.6 °F 81% 29.62 in 6.2 mi East 4.6 mph - N/A   Overcast
7:55 AM 41.0 °F 38.0 °F 35.6 °F 81% 29.62 in 6.2 mi East 4.6 mph - N/A   Overcast
8:25 AM 42.8 °F 39.3 °F 35.6 °F 76% 29.65 in 6.2 mi East 5.8 mph - N/A   Overcast
8:55 AM 44.6 °F 43.1 °F 35.6 °F 71% 29.65 in 6.2 mi ENE 3.5 mph - N/A   Overcast
9:25 AM 44.6 °F 43.1 °F 35.6 °F 71% 29.65 in 6.2 mi East 3.5 mph - N/A   Overcast
9:55 AM 44.6 °F 43.1 °F 35.6 °F 71% 29.65 in 6.2 mi ENE 3.5 mph - N/A   Partly Cloudy
10:25 AM 46.4 °F 44.3 °F 35.6 °F 66% 29.65 in 6.2 mi ENE 4.6 mph - N/A   Overcast
10:55 AM 48.2 °F - 35.6 °F 62% 29.62 in 6.2 mi ENE 4.6 mph - N/A   Overcast
11:25 AM 51.8 °F - 37.4 °F 58% 29.62 in 6.2 mi ENE 4.6 mph - N/A   Overcast
11:55 AM 53.6 °F - 37.4 °F 54% 29.62 in 6.2 mi East 5.8 mph - N/A   Mostly Cloudy
12:25 PM 57.2 °F - 37.4 °F 48% 29.62 in 6.2 mi East 6.9 mph - N/A   Overcast
12:55 PM 60.8 °F - 35.6 °F 39% 29.59 in 6.2 mi East 8.1 mph - N/A   Overcast
1:25 PM 60.8 °F - 35.6 °F 39% 29.59 in 6.2 mi ENE 8.1 mph - N/A   Mostly Cloudy
1:55 PM 60.8 °F - 35.6 °F 39% 29.59 in 6.2 mi East 8.1 mph - N/A   Overcast
2:20 PM 62.6 °F - 33.8 °F 34% 29.59 in 6.2 mi ENE 8.1 mph - N/A   Overcast
2:25 PM 62.6 °F - 33.8 °F 34% 29.59 in 6.2 mi ENE 8.1 mph - N/A   Overcast
2:55 PM 64.4 °F - 35.6 °F 34% 29.56 in 6.2 mi ENE 9.2 mph - N/A   Overcast
3:25 PM 62.6 °F - 37.4 °F 39% 29.56 in 6.2 mi ENE 8.1 mph - N/A   Overcast
3:55 PM 62.6 °F - 37.4 °F 39% 29.56 in 6.2 mi ENE 10.4 mph - N/A   Overcast
4:25 PM 62.6 °F - 33.8 °F 34% 29.56 in 6.2 mi ENE 9.2 mph - N/A   Overcast
4:55 PM 60.8 °F - 37.4 °F 42% 29.56 in 6.2 mi ENE 6.9 mph - N/A   Overcast
5:25 PM 60.8 °F - 37.4 °F 42% 29.56 in 6.2 mi NE 5.8 mph - N/A   Overcast
5:55 PM 59.0 °F - 35.6 °F 42% 29.56 in 6.2 mi NE 6.9 mph - N/A   Overcast
6:25 PM 57.2 °F - 35.6 °F 44% 29.56 in 6.2 mi NE 6.9 mph - N/A   Overcast
6:55 PM 55.4 °F - 35.6 °F 47% 29.56 in 6.2 mi NE 8.1 mph - N/A   Overcast
7:25 PM 55.4 °F - 33.8 °F 44% 29.56 in 6.2 mi NE 9.2 mph - N/A   Overcast
7:55 PM 53.6 °F - 33.8 °F 47% 29.56 in 6.2 mi NE 6.9 mph - N/A   Overcast
8:25 PM 50.0 °F - 35.6 °F 58% 29.56 in 6.2 mi ENE 6.9 mph - N/A   Overcast
8:55 PM 51.8 °F - 35.6 °F 54% 29.56 in 6.2 mi NE 8.1 mph - N/A   Overcast
9:25 PM 50.0 °F - 35.6 °F 58% 29.56 in 6.2 mi NE 6.9 mph - N/A   Mostly Cloudy
9:55 PM 48.2 °F - 35.6 °F 62% 29.56 in 6.2 mi ENE 8.1 mph - N/A   Overcast
10:05 PM 48.2 °F - 35.6 °F 62% 29.56 in 6.2 mi ENE 8.1 mph - N/A   Overcast
10:25 PM 48.2 °F - 33.8 °F 58% 29.56 in 6.2 mi ENE 10.4 mph - N/A   Unknown
10:55 PM 48.2 °F - 33.8 °F 58% 29.56 in 6.2 mi ENE 8.1 mph - N/A   Mostly Cloudy
11:25 PM 48.2 °F - 35.6 °F 62% 29.56 in 6.2 mi ENE 11.5 mph - N/A   Partly Cloudy
11:55 PM 46.4 °F 41.9 °F 35.6 °F 66% 29.53 in 6.2 mi ENE 9.2 mph - N/A   Overcast